Location: Klinovec
(50.3970°N, 12.9600°E)
Time: 02:53:31
(UTC+01:00)

N. Korean satellite - Pass Details

Date: 16 November 2019
Orbit: 456 x 506 km, 97.2° (Epoch: 09 December)

Event Time Altitude Azimuth Distance (km) Brightness Sun altitude
Rises 17:28:01 0° 181° (S) 2,551 10.5 -10.5°
Reaches altitude 10° 17:30:07 10° 188° (S) 1,683 9.6 -10.8°
Maximum altitude 17:33:36 44° 261° (W) 696 7.9 -11.4°
Drops below altitude 10° 17:37:11 10° 335° (NNW) 1,721 9.5 -11.9°
Sets 17:39:21 0° 342° (NNW) 2,616 10.3 -12.3°
